CEB357 RPLL-RPVR

Flight info

Callsign CEB357
Flight time 0h 43m
Altitude 27000
Route IPATA DCT SAGAM TR16 ROX
Aircraft A320/M-SDE3FGHIRWY/LB1

Departure

Time 2026-04-17 07:19
Airport Ninoy Aquino International Airport (RPLL)

Arrival

Time 2026-04-17 08:03
Airport Roxas Airport (RPVR)
Time Latitude Longitude Altitude Speed Heading
2026-04-17 06:51 14.52236 121.00944 62 ft 0 kts 46°
2026-04-17 07:07 14.52234 121.00942 72 ft 3 kts 46°
2026-04-17 07:07 14.52216 121.00922 80 ft 4 kts 46°
2026-04-17 07:07 14.52197 121.00902 61 ft 4 kts 46°
2026-04-17 07:08 14.52179 121.00883 64 ft 4 kts 57°
2026-04-17 07:08 14.52172 121.00859 61 ft 4 kts 108°
2026-04-17 07:08 14.52183 121.00840 60 ft 1 kts 135°
2026-04-17 07:08 14.52176 121.00847 66 ft 4 kts 135°
2026-04-17 07:09 14.52156 121.00867 65 ft 0 kts 135°
2026-04-17 07:11 14.52156 121.00868 66 ft 1 kts 135°
2026-04-17 07:11 14.52130 121.00895 67 ft 10 kts 135°
2026-04-17 07:11 14.52074 121.00952 69 ft 11 kts 135°
2026-04-17 07:11 14.52026 121.01002 66 ft 9 kts 135°
2026-04-17 07:12 14.51986 121.01044 69 ft 8 kts 135°
2026-04-17 07:12 14.51935 121.01064 60 ft 12 kts 202°
2026-04-17 07:12 14.51862 121.01068 69 ft 11 kts 136°
2026-04-17 07:12 14.51806 121.01126 65 ft 14 kts 135°
2026-04-17 07:13 14.51712 121.01222 61 ft 24 kts 135°
2026-04-17 07:13 14.51593 121.01345 65 ft 25 kts 135°
2026-04-17 07:13 14.51468 121.01474 60 ft 25 kts 135°
2026-04-17 07:13 14.51344 121.01601 68 ft 26 kts 135°
2026-04-17 07:14 14.51223 121.01725 63 ft 23 kts 135°
2026-04-17 07:14 14.51113 121.01838 65 ft 17 kts 137°
2026-04-17 07:14 14.51036 121.01827 63 ft 13 kts 240°
2026-04-17 07:14 14.51054 121.01760 64 ft 8 kts 312°
2026-04-17 07:15 14.51068 121.01745 64 ft 0 kts 313°
2026-04-17 07:18 14.51071 121.01741 66 ft 5 kts 313°
2026-04-17 07:18 14.51267 121.01536 62 ft 80 kts 315°
2026-04-17 07:18 14.51818 121.00965 69 ft 141 kts 315°
2026-04-17 07:19 14.52562 121.00192 584 ft 152 kts 314°
2026-04-17 07:19 14.53314 120.99416 1257 ft 155 kts 313°
2026-04-17 07:19 14.54086 120.98621 1897 ft 159 kts 313°
2026-04-17 07:19 14.54894 120.97787 2204 ft 176 kts 312°
2026-04-17 07:20 14.55815 120.96832 2412 ft 199 kts 312°
2026-04-17 07:20 14.56847 120.95763 2606 ft 221 kts 314°
2026-04-17 07:20 14.57990 120.94578 2830 ft 245 kts 314°
2026-04-17 07:20 14.59304 120.93330 3238 ft 267 kts 327°
2026-04-17 07:21 14.61063 120.92692 3933 ft 274 kts 356°
2026-04-17 07:21 14.62938 120.92975 4744 ft 276 kts 23°
2026-04-17 07:21 14.64536 120.94050 5563 ft 276 kts 47°
2026-04-17 07:21 14.65571 120.95704 6410 ft 277 kts 70°
2026-04-17 07:22 14.65851 120.97661 7205 ft 278 kts 95°
2026-04-17 07:22 14.65319 120.99574 8018 ft 281 kts 118°
2026-04-17 07:22 14.64087 121.01158 8771 ft 287 kts 133°
2026-04-17 07:22 14.62666 121.02622 9542 ft 291 kts 134°
2026-04-17 07:23 14.61221 121.04109 9866 ft 294 kts 133°
2026-04-17 07:23 14.59773 121.05600 10047 ft 296 kts 133°
2026-04-17 07:23 14.58308 121.07117 10402 ft 313 kts 133°
2026-04-17 07:23 14.56713 121.08774 10572 ft 337 kts 133°
2026-04-17 07:24 14.55016 121.10538 10852 ft 353 kts 133°
2026-04-17 07:24 14.53267 121.12353 11393 ft 360 kts 133°
2026-04-17 07:24 14.51498 121.14190 11982 ft 364 kts 133°
2026-04-17 07:24 14.49695 121.16060 12569 ft 369 kts 133°
2026-04-17 07:25 14.47876 121.17946 13148 ft 373 kts 133°
2026-04-17 07:25 14.46033 121.19858 13713 ft 378 kts 133°
2026-04-17 07:25 14.44047 121.21658 14211 ft 384 kts 144°
2026-04-17 07:25 14.41789 121.23151 14726 ft 387 kts 146°
2026-04-17 07:26 14.39502 121.24637 15237 ft 390 kts 146°
2026-04-17 07:26 14.37195 121.26128 15749 ft 393 kts 146°
2026-04-17 07:26 14.34864 121.27634 16242 ft 397 kts 146°
2026-04-17 07:26 14.32548 121.29130 16735 ft 400 kts 146°
2026-04-17 07:27 14.30182 121.30657 17228 ft 403 kts 146°
2026-04-17 07:27 14.27800 121.32201 17702 ft 406 kts 146°
2026-04-17 07:27 14.25403 121.33761 18173 ft 409 kts 146°
2026-04-17 07:27 14.22991 121.35333 18570 ft 412 kts 146°
2026-04-17 07:28 14.20563 121.36912 18992 ft 414 kts 146°
2026-04-17 07:28 14.18120 121.38497 19421 ft 415 kts 146°
2026-04-17 07:28 14.15670 121.40085 19862 ft 417 kts 146°
2026-04-17 07:28 14.13210 121.41678 20304 ft 418 kts 146°
2026-04-17 07:29 14.10740 121.43276 20733 ft 420 kts 146°
2026-04-17 07:29 14.08265 121.44878 21154 ft 421 kts 146°
2026-04-17 07:29 14.05776 121.46491 21569 ft 423 kts 146°
2026-04-17 07:29 14.03276 121.48109 21934 ft 426 kts 146°
2026-04-17 07:30 14.00763 121.49734 22318 ft 428 kts 147°
2026-04-17 07:30 13.98236 121.51367 22713 ft 430 kts 146°
2026-04-17 07:30 13.95696 121.53008 23108 ft 432 kts 147°
2026-04-17 07:30 13.93146 121.54656 23484 ft 434 kts 147°
2026-04-17 07:31 13.90621 121.56287 23791 ft 435 kts 147°
2026-04-17 07:31 13.88049 121.57950 24104 ft 437 kts 147°
2026-04-17 07:31 13.85468 121.59617 24400 ft 439 kts 147°
2026-04-17 07:31 13.82881 121.61288 24701 ft 440 kts 147°
2026-04-17 07:32 13.80282 121.62968 24992 ft 442 kts 147°
2026-04-17 07:32 13.77671 121.64657 25278 ft 444 kts 147°
2026-04-17 07:32 13.75055 121.66349 25583 ft 445 kts 147°
2026-04-17 07:32 13.72430 121.68048 25864 ft 447 kts 147°
2026-04-17 07:33 13.69797 121.69752 26148 ft 448 kts 147°
2026-04-17 07:33 13.67145 121.71463 26400 ft 451 kts 148°
2026-04-17 07:33 13.64477 121.73180 26657 ft 453 kts 148°
2026-04-17 07:33 13.61800 121.74904 26838 ft 455 kts 148°
2026-04-17 07:34 13.59120 121.76631 26889 ft 455 kts 148°
2026-04-17 07:34 13.56436 121.78356 26887 ft 454 kts 148°
2026-04-17 07:34 13.53760 121.80079 26887 ft 454 kts 147°
2026-04-17 07:34 13.51091 121.81800 26887 ft 453 kts 148°
2026-04-17 07:35 13.48425 121.83519 26889 ft 452 kts 147°
2026-04-17 07:35 13.45794 121.85217 26890 ft 452 kts 147°
2026-04-17 07:35 13.43136 121.86927 26890 ft 452 kts 147°
2026-04-17 07:35 13.40462 121.88646 26891 ft 452 kts 148°
2026-04-17 07:36 13.37796 121.90356 26891 ft 452 kts 148°
2026-04-17 07:36 13.35125 121.92071 26886 ft 453 kts 148°
2026-04-17 07:36 13.32459 121.93785 26880 ft 453 kts 147°
2026-04-17 07:36 13.29787 121.95507 26878 ft 453 kts 147°
2026-04-17 07:37 13.27120 121.97226 26878 ft 453 kts 147°
2026-04-17 07:37 13.24446 121.98945 26878 ft 453 kts 147°
2026-04-17 07:37 13.21773 122.00662 26879 ft 453 kts 147°
2026-04-17 07:37 13.19099 122.02377 26878 ft 453 kts 148°
2026-04-17 07:38 13.16425 122.04090 26878 ft 453 kts 148°
2026-04-17 07:38 13.13747 122.05805 26878 ft 454 kts 147°
2026-04-17 07:38 13.11072 122.07519 26880 ft 454 kts 147°
2026-04-17 07:38 13.08394 122.09235 26882 ft 454 kts 147°
2026-04-17 07:39 13.05720 122.10950 26886 ft 453 kts 147°
2026-04-17 07:39 13.03043 122.12665 26779 ft 454 kts 147°
2026-04-17 07:39 13.00373 122.14378 26539 ft 452 kts 147°
2026-04-17 07:39 12.97715 122.16084 26302 ft 450 kts 147°
2026-04-17 07:40 12.95095 122.17764 26071 ft 450 kts 147°
2026-04-17 07:40 12.92445 122.19461 25838 ft 449 kts 147°
2026-04-17 07:40 12.89797 122.21151 25606 ft 448 kts 147°
2026-04-17 07:40 12.87154 122.22839 25376 ft 447 kts 147°
2026-04-17 07:41 12.84526 122.24523 25153 ft 445 kts 147°
2026-04-17 07:41 12.81903 122.26203 24924 ft 444 kts 147°
2026-04-17 07:41 12.79282 122.27881 24700 ft 443 kts 147°
2026-04-17 07:41 12.76672 122.29548 24478 ft 442 kts 147°
2026-04-17 07:42 12.74063 122.31214 24256 ft 441 kts 147°
2026-04-17 07:42 12.71465 122.32872 24039 ft 440 kts 147°
2026-04-17 07:42 12.68876 122.34527 23822 ft 439 kts 147°
2026-04-17 07:42 12.66285 122.36184 23587 ft 437 kts 147°
2026-04-17 07:43 12.63718 122.37825 22953 ft 434 kts 147°
2026-04-17 07:43 12.61169 122.39455 22365 ft 430 kts 147°
2026-04-17 07:43 12.58646 122.41065 21792 ft 425 kts 147°
2026-04-17 07:43 12.56150 122.42660 21257 ft 421 kts 147°
2026-04-17 07:44 12.53677 122.44241 20735 ft 417 kts 147°
2026-04-17 07:44 12.51228 122.45803 20237 ft 413 kts 147°
2026-04-17 07:44 12.48795 122.47351 19747 ft 409 kts 147°
2026-04-17 07:44 12.46389 122.48882 19267 ft 406 kts 147°
2026-04-17 07:45 12.44033 122.50383 18794 ft 403 kts 147°
2026-04-17 07:45 12.41663 122.51896 18296 ft 401 kts 146°
2026-04-17 07:45 12.39301 122.53403 17753 ft 399 kts 146°
2026-04-17 07:45 12.36866 122.54750 17232 ft 397 kts 156°
2026-04-17 07:46 12.34244 122.55622 16730 ft 396 kts 164°
2026-04-17 07:46 12.31583 122.56325 16186 ft 395 kts 164°
2026-04-17 07:46 12.28929 122.57028 15654 ft 393 kts 164°
2026-04-17 07:46 12.26288 122.57731 15110 ft 393 kts 164°
2026-04-17 07:47 12.23646 122.58440 14557 ft 392 kts 164°
2026-04-17 07:47 12.21009 122.59150 14016 ft 392 kts 164°
2026-04-17 07:47 12.18368 122.59858 13427 ft 392 kts 164°
2026-04-17 07:47 12.15737 122.60564 12850 ft 390 kts 164°
2026-04-17 07:48 12.13121 122.61264 12274 ft 388 kts 164°
2026-04-17 07:48 12.10517 122.61957 11712 ft 385 kts 164°
2026-04-17 07:48 12.07932 122.62643 11129 ft 383 kts 164°
2026-04-17 07:48 12.05370 122.63324 10661 ft 377 kts 164°
2026-04-17 07:49 12.02886 122.63985 10530 ft 361 kts 164°
2026-04-17 07:49 12.00508 122.64616 10421 ft 346 kts 164°
2026-04-17 07:49 11.98220 122.65224 10290 ft 333 kts 164°
2026-04-17 07:49 11.96049 122.65803 10186 ft 321 kts 164°
2026-04-17 07:50 11.93927 122.66370 10086 ft 310 kts 164°
2026-04-17 07:50 11.91875 122.66921 9904 ft 301 kts 163°
2026-04-17 07:50 11.89860 122.67464 9442 ft 298 kts 163°
2026-04-17 07:50 11.87859 122.68001 8956 ft 296 kts 164°
2026-04-17 07:51 11.85879 122.68531 8458 ft 293 kts 164°
2026-04-17 07:51 11.83921 122.69054 8051 ft 289 kts 164°
2026-04-17 07:51 11.81988 122.69568 7671 ft 286 kts 164°
2026-04-17 07:51 11.80061 122.70080 7285 ft 285 kts 164°
2026-04-17 07:52 11.78144 122.70589 6904 ft 284 kts 164°
2026-04-17 07:52 11.76236 122.71096 6529 ft 282 kts 165°
2026-04-17 07:52 11.74338 122.71602 6144 ft 281 kts 165°
2026-04-17 07:52 11.72453 122.72106 5754 ft 280 kts 165°
2026-04-17 07:53 11.70571 122.72611 5379 ft 279 kts 165°
2026-04-17 07:53 11.68696 122.73112 5004 ft 278 kts 165°
2026-04-17 07:53 11.66828 122.73610 4630 ft 277 kts 165°
2026-04-17 07:53 11.64989 122.74098 4252 ft 276 kts 165°
2026-04-17 07:54 11.63134 122.74590 3886 ft 276 kts 165°
2026-04-17 07:54 11.61276 122.75093 3518 ft 276 kts 161°
2026-04-17 07:54 11.59561 122.75926 3152 ft 273 kts 144°
2026-04-17 07:54 11.58169 122.77200 3003 ft 269 kts 130°
2026-04-17 07:55 11.56917 122.78609 2846 ft 265 kts 131°
2026-04-17 07:55 11.55694 122.79969 2688 ft 255 kts 131°
2026-04-17 07:55 11.54519 122.81267 2596 ft 244 kts 131°
2026-04-17 07:55 11.53392 122.82511 2485 ft 234 kts 130°
2026-04-17 07:56 11.52300 122.83713 2361 ft 228 kts 131°
2026-04-17 07:56 11.51239 122.84880 2237 ft 221 kts 131°
2026-04-17 07:56 11.50218 122.86012 2122 ft 212 kts 130°
2026-04-17 07:56 11.49231 122.87100 2047 ft 204 kts 130°
2026-04-17 07:57 11.48360 122.88167 1989 ft 193 kts 122°
2026-04-17 07:57 11.47431 122.89156 1984 ft 193 kts 149°
2026-04-17 07:57 11.46151 122.89489 1995 ft 196 kts 181°
2026-04-17 07:57 11.44867 122.89075 1998 ft 197 kts 214°
2026-04-17 07:58 11.43986 122.88023 1999 ft 197 kts 248°
2026-04-17 07:58 11.43792 122.86670 1998 ft 194 kts 281°
2026-04-17 07:58 11.44313 122.85440 2001 ft 189 kts 313°
2026-04-17 07:58 11.45353 122.84656 2009 ft 186 kts 336°
2026-04-17 07:59 11.46508 122.84070 2004 ft 185 kts 336°
2026-04-17 07:59 11.47654 122.83480 2010 ft 184 kts 335°
2026-04-17 07:59 11.48798 122.82887 2008 ft 185 kts 335°
2026-04-17 07:59 11.49926 122.82301 1993 ft 172 kts 335°
2026-04-17 08:00 11.50915 122.81786 1995 ft 151 kts 336°
2026-04-17 08:00 11.51792 122.81221 1807 ft 146 kts 328°
2026-04-17 08:00 11.52609 122.80626 1609 ft 143 kts 328°
2026-04-17 08:00 11.53416 122.80043 1410 ft 141 kts 328°
2026-04-17 08:01 11.54216 122.79465 1217 ft 141 kts 328°
2026-04-17 08:01 11.55026 122.78879 1029 ft 143 kts 328°
2026-04-17 08:01 11.55819 122.78296 847 ft 143 kts 327°
2026-04-17 08:01 11.56593 122.77658 670 ft 143 kts 324°
2026-04-17 08:02 11.57373 122.77021 494 ft 144 kts 324°
2026-04-17 08:02 11.58185 122.76412 298 ft 145 kts 328°
2026-04-17 08:02 11.59007 122.75827 87 ft 143 kts 329°
2026-04-17 08:02 11.59791 122.75275 11 ft 123 kts 324°
2026-04-17 08:03 11.60251 122.74945 7 ft 43 kts 325°
2026-04-17 08:03 11.60408 122.74832 7 ft 16 kts 324°
2026-04-17 08:03 11.60458 122.74790 8 ft 3 kts 23°
2026-04-17 08:03 11.60420 122.74821 7 ft 12 kts 144°
2026-04-17 08:04 11.60356 122.74870 7 ft 10 kts 144°
2026-04-17 08:04 11.60301 122.74909 7 ft 9 kts 144°
2026-04-17 08:04 11.60253 122.74931 7 ft 7 kts 181°
2026-04-17 08:04 11.60208 122.74924 7 ft 6 kts 189°
2026-04-17 08:05 11.60169 122.74917 7 ft 6 kts 189°
2026-04-17 08:05 11.60140 122.74922 7 ft 2 kts 181°
2026-04-17 08:05 11.60130 122.74911 7 ft 2 kts 237°
2026-04-17 08:05 11.60128 122.74896 7 ft 2 kts 266°
2026-04-17 08:06 11.60128 122.74887 7 ft 1 kts 265°